Madison, SD

12:43 AM CDT on September 30, 2016 (GMT -0500)
Madison Municipal

Weather History for KMDS - January, 2013

Change the Weather History Date:

Thursday, January 17, 2013

  Actual Average Record
Temperature  
Mean Temperature 20 °F -  
Max Temperature 30 °F 21 °F 37 °F (2015)
Min Temperature 10 °F 3 °F -16 °F (2016)
Degree Days  
Heating Degree Days 45    
Moisture  
Dew Point 21 °F    
Average Humidity 95    
Maximum Humidity 100    
Minimum Humidity 73    
Precipitation  
Precipitation 0.00 in - - ()
Sea Level Pressure  
Sea Level Pressure 30.28 in    
Wind  
Wind Speed 5 mph (SSW)    
Max Wind Speed 13 mph    
Max Gust Speed -    
Visibility 10 miles    
Events      
Averages and records for this station are not official NWS values.
T = Trace of Precipitation, MM = Missing Value Source: NWS Daily Summary

Daily Weather History Graph

Daily Weather History Graph

Search for Another Location

Airport or City:

Trip Planner

Search our weather history database for the weather conditions in past years. The results will help you decide how hot, cold, wet, or windy it might be!

Date:

Astronomy

Jan. 17, 2013 Rise Set
Actual Time 7:58 AM CST 5:18 PM CST
Civil Twilight 7:26 AM CST 5:50 PM CST
Nautical Twilight 6:51 AM CST 6:26 PM CST
Astronomical Twilight 6:16 AM CST 7:00 PM CST
Moon 10:50 AM CST (1/17) No Moon Set
Length of Visible Light 10h 24m
Length of Day
9h 20m
Waxing Crescent, 38% of the Moon is Illuminated
Jan 17
Waxing Crescent
Jan 18
First Quarter
Jan 26
Full
Feb 3
Last Quarter
Feb 10
New

Hourly Weather History & Observations

Time (CST) Temp. Windchill Dew Point Humidity Pressure Visibility Wind Dir Wind Speed Gust Speed Precip Events Conditions
12:00 AM 10.4 °F - 6.8 °F 85% 30.22 in 10.0 mi Calm Calm - N/A   Scattered Clouds
12:20 AM 10.4 °F 4.0 °F 8.6 °F 92% 30.24 in 10.0 mi WSW 3.5 mph - N/A   Scattered Clouds
12:40 AM 10.4 °F 2.2 °F 6.8 °F 85% 30.25 in 10.0 mi West 4.6 mph - N/A   Mostly Cloudy
1:00 AM 12.2 °F - 5.0 °F 73% 30.25 in 10.0 mi Calm Calm - N/A   Overcast
1:20 AM 14.0 °F 6.5 °F 6.8 °F 73% 30.26 in 10.0 mi West 4.6 mph - N/A   Overcast
1:40 AM 14.0 °F 6.5 °F 6.8 °F 73% 30.27 in 10.0 mi West 4.6 mph - N/A   Overcast
2:00 AM 14.0 °F 6.5 °F 6.8 °F 73% 30.28 in 10.0 mi West 4.6 mph - N/A   Overcast
2:20 AM 14.0 °F 6.5 °F 8.6 °F 79% 30.28 in 10.0 mi WSW 4.6 mph - N/A   Overcast
2:40 AM 14.0 °F - 6.8 °F 73% 30.30 in 10.0 mi Calm Calm - N/A   Overcast
3:20 AM 15.8 °F - 8.6 °F 73% 30.29 in 10.0 mi Calm Calm - N/A   Overcast
3:40 AM 15.8 °F - 8.6 °F 73% 30.30 in 10.0 mi Calm Calm - N/A   Overcast
4:00 AM 15.8 °F 10.2 °F 8.6 °F 73% 30.30 in 10.0 mi ENE 3.5 mph - N/A   Overcast
4:20 AM 15.8 °F 10.2 °F 10.4 °F 79% 30.29 in 10.0 mi ENE 3.5 mph - N/A   Overcast
4:40 AM 15.8 °F - 12.2 °F 86% 30.29 in 10.0 mi Calm Calm - N/A   Overcast
5:00 AM 15.8 °F 10.2 °F 12.2 °F 86% 30.29 in 10.0 mi South 3.5 mph - N/A   Overcast
5:20 AM 15.8 °F 6.1 °F 12.2 °F 86% 30.29 in 10.0 mi SSW 6.9 mph - N/A   Overcast
5:40 AM 15.8 °F 8.6 °F 12.2 °F 86% 30.31 in 10.0 mi SSW 4.6 mph - N/A   Overcast
6:00 AM 15.8 °F 6.1 °F 15.8 °F 100% 30.30 in 10.0 mi SSW 6.9 mph - N/A   Overcast
6:20 AM 15.8 °F 10.2 °F 15.8 °F 100% 30.31 in 10.0 mi SSE 3.5 mph - N/A   Overcast
6:40 AM 15.8 °F - 15.8 °F 100% 30.32 in 10.0 mi Calm Calm - N/A   Overcast
7:00 AM 17.6 °F 12.3 °F 17.6 °F 100% 30.32 in 10.0 mi South 3.5 mph - N/A   Overcast
7:20 AM 17.6 °F 8.2 °F 17.6 °F 100% 30.31 in 10.0 mi SW 6.9 mph - N/A   Overcast
7:40 AM 15.8 °F 3.4 °F 15.8 °F 100% 30.30 in 10.0 mi South 10.4 mph - N/A   Mostly Cloudy
8:00 AM 15.8 °F 6.1 °F 15.8 °F 100% 30.31 in 10.0 mi SW 6.9 mph - N/A   Partly Cloudy
8:20 AM 17.6 °F 5.0 °F 17.6 °F 100% 30.31 in 10.0 mi SSW 11.5 mph - N/A   Clear
8:40 AM 17.6 °F 5.7 °F 17.6 °F 100% 30.33 in 10.0 mi SW 10.4 mph - N/A   Clear
9:00 AM 19.4 °F 7.9 °F 19.4 °F 100% 30.34 in 10.0 mi SW 10.4 mph - N/A   Clear
9:20 AM 19.4 °F 9.5 °F 19.4 °F 100% 30.34 in 10.0 mi WSW 8.1 mph - N/A   Clear
9:40 AM 23.0 °F 12.4 °F 23.0 °F 100% 30.34 in 10.0 mi WSW 10.4 mph - N/A   Mostly Cloudy
10:00 AM 23.0 °F 13.9 °F 23.0 °F 100% 30.35 in 10.0 mi West 8.1 mph - N/A   Overcast
10:20 AM 24.8 °F 16.9 °F 24.8 °F 100% 30.35 in 10.0 mi West 6.9 mph - N/A   Overcast
10:40 AM 24.8 °F 16.9 °F 24.8 °F 100% 30.35 in 10.0 mi West 6.9 mph - N/A   Overcast
11:00 AM 26.6 °F 18.2 °F 26.6 °F 100% 30.35 in 10.0 mi WNW 8.1 mph - N/A   Overcast
11:20 AM 26.6 °F 18.2 °F 26.6 °F 100% 30.35 in 10.0 mi West 8.1 mph - N/A   Overcast
11:40 AM 28.4 °F 19.1 °F 28.4 °F 100% 30.34 in 10.0 mi WNW 10.4 mph - N/A   Overcast
12:00 PM 28.4 °F 19.1 °F 28.4 °F 100% 30.35 in 10.0 mi NW 10.4 mph - N/A   Overcast
12:20 PM 28.4 °F 22.2 °F 28.4 °F 100% 30.34 in 10.0 mi WNW 5.8 mph - N/A   Overcast
12:40 PM 28.4 °F 22.2 °F 28.4 °F 100% 30.34 in 10.0 mi NNW 5.8 mph - N/A   Overcast
1:00 PM 28.4 °F 22.2 °F 28.4 °F 100% 30.33 in 10.0 mi NW 5.8 mph - N/A   Overcast
1:20 PM 30.2 °F 25.4 °F 30.2 °F 100% 30.32 in 10.0 mi NW 4.6 mph - N/A   Overcast
1:40 PM 30.2 °F - 30.2 °F 100% 30.31 in 10.0 mi Calm Calm - N/A   Overcast
2:00 PM 30.2 °F 24.3 °F 30.2 °F 100% 30.31 in 10.0 mi NNE 5.8 mph - N/A   Overcast
2:20 PM 30.2 °F 26.7 °F 30.2 °F 100% 30.31 in 10.0 mi NE 3.5 mph - N/A   Overcast
2:40 PM 28.4 °F - 28.4 °F 100% 30.31 in 10.0 mi Calm Calm - N/A   Overcast
3:00 PM 30.2 °F - 30.2 °F 100% 30.30 in 10.0 mi Calm Calm - N/A   Overcast
3:20 PM 28.4 °F 24.6 °F 28.4 °F 100% 30.31 in 10.0 mi ESE 3.5 mph - N/A   Overcast
3:40 PM 30.2 °F 24.3 °F 30.2 °F 100% 30.31 in 10.0 mi East 5.8 mph - N/A   Mostly Cloudy
4:00 PM 28.4 °F 21.2 °F 28.4 °F 100% 30.30 in 10.0 mi SE 6.9 mph - N/A   Mostly Cloudy
4:20 PM 28.4 °F 21.2 °F 28.4 °F 100% 30.31 in 10.0 mi ESE 6.9 mph - N/A   Mostly Cloudy
4:40 PM 28.4 °F 21.2 °F 28.4 °F 100% 30.30 in 10.0 mi East 6.9 mph - N/A   Overcast
5:00 PM 26.6 °F 20.0 °F 26.6 °F 100% 30.29 in 10.0 mi ESE 5.8 mph - N/A   Overcast
5:20 PM 26.6 °F 19.1 °F 26.6 °F 100% 30.30 in 10.0 mi SE 6.9 mph - N/A   Overcast
5:40 PM 24.8 °F 17.9 °F 24.8 °F 100% 30.30 in 10.0 mi ESE 5.8 mph - N/A   Overcast
6:00 PM 24.8 °F 17.9 °F 24.8 °F 100% 30.30 in 10.0 mi ESE 5.8 mph - N/A   Overcast
6:20 PM 24.8 °F 16.9 °F 24.8 °F 100% 30.29 in 10.0 mi SE 6.9 mph - N/A   Overcast
6:40 PM 24.8 °F - 24.8 °F 100% 30.28 in 10.0 mi North - - N/A   Scattered Clouds
7:00 PM 24.8 °F 16.1 °F 24.8 °F 100% 30.27 in 10.0 mi SSE 8.1 mph - N/A   Scattered Clouds
7:20 PM 24.8 °F 15.3 °F 24.8 °F 100% 30.26 in 10.0 mi SSE 9.2 mph - N/A   Mostly Cloudy
7:40 PM 24.8 °F 15.3 °F 24.8 °F 100% 30.26 in 10.0 mi SSE 9.2 mph - N/A   Overcast
8:00 PM 24.8 °F 14.6 °F 24.8 °F 100% 30.24 in 10.0 mi SSE 10.4 mph - N/A   Overcast
8:40 PM 24.8 °F 15.3 °F 24.8 °F 100% 30.22 in 10.0 mi SSE 9.2 mph - N/A   Overcast
9:00 PM 24.8 °F 15.3 °F 24.8 °F 100% 30.20 in 10.0 mi SSE 9.2 mph - N/A   Overcast
9:20 PM 24.8 °F 14.6 °F 24.8 °F 100% 30.19 in 10.0 mi South 10.4 mph - N/A   Overcast
9:40 PM 24.8 °F 13.4 °F 24.8 °F 100% 30.16 in 10.0 mi South 12.7 mph - N/A   Overcast
10:00 PM 26.6 °F 15.7 °F 26.6 °F 100% 30.15 in 10.0 mi South 12.7 mph - N/A   Scattered Clouds
10:20 PM 26.6 °F 15.7 °F 26.6 °F 100% 30.13 in 10.0 mi South 12.7 mph - N/A   Scattered Clouds
10:40 PM 26.6 °F 15.7 °F 26.6 °F 100% 30.12 in 10.0 mi South 12.7 mph - N/A   Partly Cloudy
11:00 PM 26.6 °F 16.2 °F 26.6 °F 100% 30.11 in 10.0 mi South 11.5 mph - N/A   Scattered Clouds
11:20 PM 26.6 °F 17.5 °F 26.6 °F 100% 30.10 in 10.0 mi South 9.2 mph - N/A   Mostly Cloudy
11:40 PM 26.6 °F 17.5 °F 26.6 °F 100% 30.09 in 10.0 mi South 9.2 mph - N/A   Partly Cloudy